[[{"header":{"parameterUnit":"m.s-1","parameterCategory":1,"la1":30.2991,"la2":30.254,"lo1":-89.0895,"lo2":-89.0444,"dy":0.0017,"dx":0.0017,"nx":28,"ny":28,"refTime":"2025-02-08T03:00:00:Z","depth":0,"parameterNumber":2,"parameterNumberName":"U-component_of_WINDS"},"data":[0,0,0,0,0,0,0,0,0,0,0,0,0,0,0,0,0,0,0,0,0,0,0,0,0,0,0,0,0,0,0,0,0,0,0,0,0,0,0,0,0,0,0,0,0,0,0,0,0,0,0,0,0,0,0,0,0,0,0.5801,0.5802,0,0.5862,0.5863,0.5863,0.5903,0.5903,0.5903,0.5903,0.5967,0.5968,0.597,0,0,0,0,0,0,0,0,0,0,0,0,0,0.5719,0.572,0.5801,0.5802,0.5802,0.5862,0.5863,0.5864,0.5903,0.5903,0.5903,0.5903,0.5966,0.5968,0.597,0,0,0,0,0,0,0,0,0,0,0,0,0,0.5765,0.5721,0.5801,0.5829,0.5832,0.5862,0.5863,0.5864,0.5903,0.5903,0.5903,0.5904,0.5966,0.5968,0.597,0.5977,0,0,0.5977,0.5978,0,0,0,0,0,0,0,0,0.5762,0.5768,0.5824,0.5827,0.5831,0.5875,0.5857,0.5902,0.5902,0.5876,0.5903,0.5904,0.5936,0.5941,0.5951,0.598,0.5982,0.5977,0.5978,0.5979,0.598,0,0,0,0,0,0,0,0.5759,0.5765,0.5825,0.5825,0.5829,0.5839,0.5846,0.5866,0.5903,0.5878,0.5881,0.5888,0.5938,0.5949,0.5953,0.5983,0.5977,0.5979,0.598,0.5981,0.6021,0.6021,0,0,0,0,0,0,0.5751,0.5762,0.5823,0.5827,0.5797,0.584,0.5848,0.586,0.5903,0.591,0.5887,0.5889,0.5945,0.5951,0.5956,0.5967,0.5979,0.5981,0.5983,0.6021,0.6021,0.6021,0,0,0,0,0,0,0.5749,0.5756,0.5821,0.5796,0.5805,0.5841,0.5855,0.5861,0.5873,0.591,0.5917,0.5892,0.5946,0.5953,0.5971,0.597,0.5982,0.5984,0.6022,0.6021,0.6021,0.5989,0,0,0,0,0,0,0.5747,0.5755,0.5758,0.5795,0.5806,0.5835,0.5855,0.5862,0.5876,0.588,0.5916,0.5923,0.5947,0.5968,0.5974,0.5973,0.5986,0.6022,0.6022,0.6021,0.5991,0.5988,0.5986,0,0,0,0,0,0.5744,0.5746,0.5758,0.5765,0.581,0.5835,0.5841,0.5868,0.5876,0.5879,0.5903,0.5922,0.5969,0.5969,0.5976,0.5976,0.6022,0.6022,0.6021,0.5992,0.5989,0.5986,0,0,0,0,0,0,0.5708,0.5752,0.5765,0.578,0.5803,0.5841,0.5846,0.5863,0.5885,0.5887,0.592,0.5928,0.5944,0.5962,0.5962,0.5986,0.5998,0.5998,0.5973,0.597,0.5968,0.5963,0.5988,0,0,0,0,0,0.5702,0.5718,0.5756,0.5765,0.5776,0.5809,0.5821,0.584,0.5866,0.5876,0.5901,0.5926,0.5946,0.5959,0.598,0.5993,0.6002,0.5997,0.5994,0.5992,0.5992,0.6002,0.6,0.6019,0.6019,0.6019,0,0,0.5689,0.5715,0.5724,0.5759,0.5779,0.5796,0.5817,0.5834,0.5847,0.5879,0.5898,0.5917,0.5947,0.5963,0.5972,0.5979,0.5989,0.5991,0.5989,0.5991,0.6001,0.5999,0.5997,0.6018,0.6019,0.6019,0,0,0.5675,0.5696,0.5707,0.5727,0.5757,0.5779,0.5782,0.5818,0.5832,0.5852,0.5876,0.5892,0.5926,0.5947,0.5962,0.5956,0.5974,0.5962,0.5948,0.5957,0.5956,0.5954,0.5953,0.5952,0.5962,0.5962,0.5962,0,0.5656,0.5682,0.571,0.5726,0.5741,0.577,0.5782,0.58,0.5836,0.5846,0.5853,0.5897,0.5919,0.5941,0.594,0.595,0.5955,0.5958,0.5953,0.5953,0.5952,0.5951,0.5951,0.596,0.596,0.596,0.5961,0,0.5657,0.5675,0.568,0.5714,0.5729,0.5743,0.5774,0.5786,0.5804,0.5825,0.5845,0.5873,0.59,0.5906,0.5924,0.5931,0.5935,0.5947,0.596,0.5948,0.5948,0.5948,0.5958,0.5958,0.5959,0.5959,0,0,0.5622,0.5672,0.5673,0.569,0.5726,0.574,0.5755,0.5782,0.5793,0.5816,0.583,0.5859,0.5871,0.5888,0.5907,0.5915,0.591,0.5927,0.5928,0.5923,0.5921,0.5911,0.5911,0.5921,0.5921,0.5921,0.5918,0,0.5614,0.5642,0.5669,0.5688,0.5705,0.5733,0.5747,0.5771,0.5791,0.5809,0.5831,0.5851,0.5865,0.5876,0.5884,0.5908,0.591,0.5909,0.5935,0.5936,0.5928,0.591,0.5901,0.5897,0.5918,0.5918,0.5918,0,0.5608,0.5631,0.5652,0.5688,0.5696,0.5707,0.5734,0.5751,0.5779,0.5793,0.5812,0.5833,0.585,0.5861,0.5886,0.5885,0.5898,0.5911,0.5912,0.5916,0.5927,0.5915,0.5896,0.5896,0.5918,0.5918,0.5918,0,0.5582,0.5618,0.5636,0.5648,0.569,0.5697,0.5715,0.5743,0.5758,0.5781,0.5791,0.5817,0.5831,0.585,0.5877,0.5882,0.59,0.5912,0.5913,0.5912,0.5916,0.5915,0.5899,0.5922,0.5922,0.5922,0.5922,0,0.5571,0.5583,0.5624,0.5635,0.565,0.568,0.5693,0.5714,0.5739,0.5754,0.578,0.5794,0.5829,0.5847,0.5868,0.5887,0.5892,0.5905,0.5911,0.5903,0.5902,0.5912,0.5914,0.5922,0.5922,0.5922,0.5922,0,0.5544,0.5572,0.5593,0.5631,0.5641,0.565,0.5682,0.5694,0.5716,0.5735,0.5742,0.5776,0.5799,0.5828,0.586,0.5874,0.5891,0.5899,0.5881,0.5885,0.5884,0.5884,0.5875,0.5875,0.5897,0.5896,0.5896,0,0.5535,0.5545,0.5584,0.5597,0.5614,0.5633,0.5648,0.5678,0.5693,0.5726,0.5734,0.5759,0.5781,0.5816,0.5844,0.5869,0.5879,0.5874,0.5883,0.5875,0.588,0.5879,0.5881,0.5872,0.5871,0.5871,0.5871,0,0.5517,0.5531,0.5552,0.5578,0.5595,0.5617,0.564,0.5649,0.5684,0.57,0.5724,0.574,0.5773,0.5798,0.5827,0.5845,0.5864,0.5868,0.5869,0.5862,0.5852,0.5858,0.5876,0.5868,0.5868,0.5868,0.5869,0.5869,0.55,0.551,0.554,0.5563,0.5583,0.5604,0.5618,0.5641,0.5662,0.5691,0.5708,0.5731,0.576,0.58,0.5818,0.5837,0.5844,0.5846,0.5847,0.5847,0.5845,0.5848,0.5842,0.5842,0.5843,0.5843,0.5843,0,0.5484,0.5504,0.5525,0.5557,0.5575,0.5591,0.5617,0.5631,0.5652,0.5677,0.5698,0.5726,0.575,0.578,0.5806,0.5816,0.5825,0.5822,0.5822,0.5826,0.5837,0.5833,0.5814,0.5814,0.5814,0.5814,0.5814,0.5814,0.5478,0.5497,0.5514,0.5544,0.5564,0.5588,0.5602,0.5622,0.5642,0.5672,0.5693,0.5712,0.5739,0.5768,0.5791,0.5799,0.5808,0.5802,0.5813,0.5823,0.5825,0.5828,0.5824,0.5803,0.5803,0.5801,0.58,0.58]},{"header":{"parameterUnit":"m.s-1","parameterCategory":1,"la1":30.2991,"la2":30.254,"lo1":-89.0895,"lo2":-89.0444,"dy":0.0017,"dx":0.0017,"nx":28,"ny":28,"refTime":"2025-02-08T03:00:00:Z","depth":0,"parameterNumber":3,"parameterNumberName":"V-component_of_WINDS"},"data":[0,0,0,0,0,0,0,0,0,0,0,0,0,0,0,0,0,0,0,0,0,0,0,0,0,0,0,0,0,0,0,0,0,0,0,0,0,0,0,0,0,0,0,0,0,0,0,0,0,0,0,0,0,0,0,0,0,0,2.0151,2.0151,0,2.0167,2.0167,2.0168,2.02,2.0201,2.0202,2.0202,2.0216,2.0216,2.0216,0,0,0,0,0,0,0,0,0,0,0,0,0,2.0145,2.0145,2.0151,2.0151,2.0151,2.0167,2.0167,2.0168,2.02,2.0201,2.0202,2.0203,2.0216,2.0216,2.0216,0,0,0,0,0,0,0,0,0,0,0,0,0,2.0153,2.0145,2.0151,2.0169,2.0171,2.0167,2.0167,2.0168,2.02,2.0201,2.0202,2.0203,2.0216,2.0216,2.0216,2.0194,0,0,2.0215,2.0215,0,0,0,0,0,0,0,0,2.0152,2.0153,2.0166,2.0168,2.017,2.0183,2.0171,2.0176,2.02,2.0189,2.0202,2.0203,2.0204,2.0205,2.0206,2.0195,2.0195,2.0215,2.0214,2.0214,2.0214,0,0,0,0,0,0,0,2.0152,2.0153,2.0157,2.0167,2.0169,2.0176,2.0178,2.0172,2.0191,2.019,2.0192,2.0194,2.0205,2.0206,2.0206,2.0195,2.0215,2.0214,2.0214,2.0214,2.0168,2.0167,0,0,0,0,0,0,2.0149,2.0152,2.0157,2.0158,2.0164,2.0176,2.0178,2.0178,2.0191,2.0194,2.0193,2.0196,2.0206,2.0207,2.0207,2.0183,2.0214,2.0214,2.0214,2.0169,2.0167,2.0166,0,0,0,0,0,0,2.0149,2.0149,2.0156,2.0156,2.0157,2.0175,2.0174,2.0178,2.0178,2.0194,2.0197,2.0191,2.0207,2.0207,2.0197,2.0184,2.0214,2.0213,2.017,2.0168,2.0167,2.0134,0,0,0,0,0,0,2.0148,2.0149,2.0141,2.0155,2.0157,2.0147,2.0173,2.0177,2.0178,2.0181,2.0192,2.0195,2.0208,2.0198,2.0197,2.0184,2.0213,2.0171,2.0169,2.0167,2.0136,2.0131,2.0127,0,0,0,0,0,2.0148,2.013,2.0141,2.0141,2.0148,2.0146,2.0147,2.0163,2.0177,2.0169,2.0179,2.0194,2.0185,2.0196,2.0196,2.0182,2.0172,2.017,2.0167,2.0138,2.0132,2.0127,0,0,0,0,0,0,2.0113,2.0132,2.0144,2.0131,2.0136,2.0151,2.0142,2.0156,2.0157,2.016,2.018,2.0182,2.0169,2.0175,2.0187,2.0162,2.0181,2.0179,2.0159,2.0153,2.0149,2.0148,2.0213,0,0,0,0,0,2.0104,2.0102,2.0118,2.0105,2.0107,2.0124,2.0124,2.0136,2.0142,2.0145,2.0154,2.0159,2.0157,2.0156,2.0155,2.0137,2.014,2.0127,2.0123,2.0119,2.0117,2.0108,2.0103,2.0159,2.0159,2.0159,0,0,2.0085,2.0095,2.0092,2.0098,2.0104,2.01,2.0126,2.0121,2.0118,2.0144,2.0135,2.0142,2.0149,2.0135,2.0129,2.0139,2.0102,2.0116,2.0113,2.0113,2.0105,2.01,2.0095,2.0157,2.0158,2.0158,0,0,2.0048,2.0056,2.0045,2.0051,2.0061,2.0072,2.007,2.0083,2.0088,2.008,2.01,2.0096,2.0093,2.0097,2.0099,2.0065,2.0079,2.0064,2.004,2.0031,2.0027,2.0023,2.0011,2.0007,2.0061,2.0061,2.0061,0,2.0023,2.0019,2.0038,2.0032,2.0034,2.0058,2.0048,2.0052,2.006,2.0061,2.0072,2.0069,2.0075,2.0063,2.0055,2.0055,2.0053,2.0063,2.0026,2.0023,2.0019,2.0008,2.0003,2.0059,2.0059,2.006,2.006,0,1.9988,1.9985,1.9975,1.9984,1.9985,1.9976,1.9994,1.9992,2.0004,2.0014,2.0006,2.0014,2.0016,2.0014,2.0025,2.0003,2.0009,2.0023,2.0043,2.0012,2.0002,1.9997,2.0057,2.0057,2.0058,2.0058,0,0,1.9929,1.9949,1.9945,1.995,1.9962,1.996,1.9952,1.9955,1.9954,1.9958,1.9953,1.995,1.9963,1.9965,1.9977,1.9969,1.9942,1.9984,1.9985,1.9976,1.9918,1.9908,1.9903,1.9952,1.9951,1.995,1.9918,0,1.9895,1.9885,1.9902,1.9888,1.9885,1.9909,1.9902,1.9909,1.9918,1.9917,1.9927,1.9924,1.9942,1.9943,1.9937,1.9947,1.993,1.9949,1.9946,1.9946,1.9944,1.9897,1.9886,1.9855,1.9914,1.9913,1.9913,0,1.9854,1.9858,1.9844,1.9858,1.9858,1.9852,1.9856,1.9855,1.9862,1.987,1.9872,1.9887,1.988,1.9899,1.989,1.9903,1.9902,1.9907,1.9906,1.9906,1.9927,1.9896,1.9846,1.9841,1.9907,1.9907,1.9907,0,1.9813,1.9815,1.9807,1.981,1.9826,1.9821,1.9827,1.9836,1.9837,1.9841,1.9841,1.9843,1.9844,1.9845,1.986,1.9872,1.9849,1.9869,1.9855,1.9854,1.9848,1.9849,1.9797,1.9848,1.9848,1.9848,1.9848,0,1.9773,1.9764,1.9789,1.9784,1.9774,1.9793,1.9783,1.9791,1.9799,1.9795,1.9815,1.9811,1.9831,1.9829,1.984,1.9831,1.9831,1.9837,1.984,1.9835,1.9834,1.9835,1.9838,1.9847,1.9847,1.9847,1.9848,0,1.9726,1.9742,1.9735,1.9751,1.9755,1.9747,1.976,1.9756,1.9767,1.9762,1.9762,1.9779,1.9778,1.9793,1.9794,1.9802,1.9787,1.9794,1.9785,1.9787,1.9772,1.9773,1.9719,1.9713,1.9767,1.9767,1.9766,0,1.9699,1.9693,1.9709,1.9709,1.9714,1.9713,1.9715,1.9734,1.9734,1.9743,1.9737,1.9738,1.974,1.9737,1.9748,1.975,1.9757,1.9738,1.9757,1.9752,1.9757,1.9757,1.9756,1.9733,1.9733,1.9732,1.9732,0,1.9651,1.966,1.9662,1.9666,1.9668,1.9672,1.9678,1.9676,1.9697,1.9696,1.9696,1.9697,1.9699,1.97,1.9703,1.9709,1.9723,1.9726,1.9722,1.9717,1.9713,1.9715,1.9774,1.9727,1.9727,1.9728,1.9728,1.9728,1.9613,1.9609,1.962,1.9621,1.9628,1.9633,1.963,1.9641,1.9641,1.9645,1.9656,1.9654,1.9662,1.9669,1.9673,1.9671,1.9681,1.9676,1.9674,1.9673,1.967,1.9713,1.9672,1.9672,1.9672,1.9672,1.9673,0,1.9566,1.9575,1.9576,1.9584,1.9585,1.96,1.9607,1.9607,1.9605,1.9612,1.9614,1.9613,1.9614,1.9626,1.9628,1.9624,1.9631,1.9624,1.9624,1.9625,1.9662,1.9665,1.9618,1.9618,1.9618,1.9618,1.9618,1.9618,1.9542,1.9536,1.9546,1.9542,1.9551,1.955,1.9553,1.9557,1.9563,1.9562,1.9563,1.9571,1.958,1.9583,1.9584,1.9588,1.9587,1.9578,1.9584,1.9618,1.9623,1.9628,1.9631,1.9578,1.9578,1.9548,1.9547,1.9547]}]]